SMTO2: Mountain Fork Nr Smithville, O

Data processed at Mon Sep 24 2018 22:32


All information presented herein is the property of the government of the United States of America and may be revised or deleted at any time without prior notice.
Dissemination of this information without the expressed written consent of the Public Affairs Office, Tulsa District U.S. Army Corps of Engineers is strictly prohibited.
These data are gathered electronically and, as presented, have not undergone any form of quality control. These data are not guaranteed to be valid or correct.
Go to home page.
Go to station list.
Go to home page.

Upstream stations:

Downstream station:
Previous Day
Next Day
Current Day
    
SHEF ID:       SMTO2     Mountain Fork at Smithville, OK
STATION TYPE:  

               PRECIP     STAGE  RIV-FLOW  BAT-LOAD
                   in        ft       cfs      volt
              Ccp-Rev   Ccp-Rev   Ccp-Rev   Ccp-Rev
(US/Central)
09/24 00:00      0.00      7.92       357     12.81
09/24 01:00      0.01      7.90       348     12.81
09/24 02:00      0.06      7.90       348     12.73
09/24 03:00      0.01      7.89       344     12.73
09/24 04:00      0.00      7.88       340     12.73
09/24 05:00      0.00      7.87       335     12.73
09/24 06:00      0.00      7.86       331     12.65
09/24 07:00      0.01      7.85       327     12.65
09/24 08:00      0.04      7.83       318     12.65
09/24 09:00      0.02      7.83       318     12.73
09/24 10:00      0.00      7.82       314     13.05
09/24 11:00      0.00      7.81       310     13.05
09/24 12:00      0.00      7.80       306     13.21
09/24 13:00      0.00      7.79       302     13.37
09/24 14:00      0.00      7.78       298     13.37
09/24 15:00      0.00      7.77       294     13.37
09/24 16:00      0.00      7.76       290     13.29
09/24 17:00      0.00      7.75       286     13.21
09/24 18:00      0.00      7.73       279     13.13
09/24 19:00      0.00      7.72       275     12.97
09/24 20:00      0.00      7.70       267     12.89
09/24 21:00      0.00      7.69       263     12.89
09/24 22:00      ----      ----      ----      ----
09/24 23:00      ----      ----      ----      ----